SL-4 R/B

Last updated on Jan. 24, 2021, 12:02 a.m. UTC

1 39679U 14021B   21023.61112352  .00000022  00000-0  19363-4 0  9991
2 39679  51.6156 165.5333 0170814 349.0220  10.7042 15.06727431372212

Satellite is not in orbit.